TimeCST,TemperatureF,Dew PointF,Humidity,Sea Level PressureIn,VisibilityMPH,Wind Direction,Wind SpeedMPH,Gust SpeedMPH,PrecipitationIn,Events,Conditions,WindDirDegrees,DateUTC
12:53 AM,39.9,35.1,83,29.78,10.0,West,15.0,-,N/A,,Mostly Cloudy,280,2013-11-09 06:53:00
1:53 AM,39.9,36.0,86,29.82,10.0,West,10.4,-,N/A,,Overcast,280,2013-11-09 07:53:00
2:15 AM,41.0,37.4,87,29.80,10.0,WNW,15.0,19.6,N/A,,Overcast,290,2013-11-09 08:15:00
2:53 AM,39.9,35.1,83,29.86,10.0,WNW,19.6,31.1,N/A,,Overcast,300,2013-11-09 08:53:00
3:40 AM,39.2,32.0,75,29.85,10.0,WNW,19.6,25.3,N/A,,Mostly Cloudy,300,2013-11-09 09:40:00
3:53 AM,37.9,32.0,79,29.89,10.0,NW,12.7,23.0,N/A,,Partly Cloudy,310,2013-11-09 09:53:00
4:18 AM,37.4,32.0,81,29.88,10.0,WNW,8.1,-,N/A,,Mostly Cloudy,300,2013-11-09 10:18:00
4:45 AM,37.4,32.0,81,29.89,10.0,WNW,15.0,-,N/A,,Scattered Clouds,300,2013-11-09 10:45:00
4:53 AM,37.0,32.0,82,29.92,10.0,WNW,10.4,-,N/A,,Partly Cloudy,290,2013-11-09 10:53:00
5:53 AM,36.0,30.9,82,29.96,10.0,WNW,13.8,-,N/A,,Clear,300,2013-11-09 11:53:00
6:23 AM,35.6,32.0,87,29.95,10.0,WNW,9.2,-,N/A,,Mostly Cloudy,290,2013-11-09 12:23:00
6:53 AM,37.0,32.0,82,29.99,10.0,WNW,13.8,-,N/A,,Overcast,300,2013-11-09 12:53:00
7:53 AM,37.9,30.9,76,30.03,10.0,NW,16.1,25.3,N/A,,Overcast,310,2013-11-09 13:53:00
8:24 AM,37.4,30.2,75,30.01,10.0,WNW,10.4,-,N/A,,Mostly Cloudy,300,2013-11-09 14:24:00
8:53 AM,37.9,32.0,79,30.07,10.0,WNW,12.7,19.6,N/A,,Overcast,290,2013-11-09 14:53:00
9:01 AM,37.4,32.0,81,30.04,10.0,WNW,11.5,-,N/A,,Overcast,290,2013-11-09 15:01:00
9:53 AM,39.0,28.0,65,30.09,10.0,WNW,17.3,27.6,N/A,,Clear,300,2013-11-09 15:53:00
10:53 AM,39.0,25.0,57,30.10,10.0,WNW,26.5,38.0,N/A,,Clear,300,2013-11-09 16:53:00
11:53 AM,41.0,25.0,53,30.13,10.0,NW,23.0,34.5,N/A,,Overcast,310,2013-11-09 17:53:00
12:53 PM,42.1,26.1,53,30.13,10.0,WNW,21.9,29.9,N/A,,Overcast,300,2013-11-09 18:53:00
1:53 PM,43.0,25.0,49,30.15,10.0,WNW,23.0,31.1,N/A,,Scattered Clouds,290,2013-11-09 19:53:00
2:53 PM,42.1,23.0,47,30.17,10.0,NW,25.3,33.4,N/A,,Clear,310,2013-11-09 20:53:00
3:53 PM,41.0,23.0,49,30.21,10.0,NNW,20.7,32.2,N/A,,Partly Cloudy,330,2013-11-09 21:53:00
4:53 PM,37.0,24.1,59,30.24,10.0,NNW,15.0,-,N/A,,Clear,330,2013-11-09 22:53:00
5:53 PM,33.1,24.1,70,30.28,10.0,NNW,12.7,-,N/A,,Clear,340,2013-11-09 23:53:00
6:53 PM,30.0,23.0,75,30.31,10.0,NNW,9.2,-,N/A,,Clear,340,2013-11-10 00:53:00
7:53 PM,26.1,21.0,81,30.34,10.0,NNW,4.6,-,N/A,,Clear,330,2013-11-10 01:53:00
8:53 PM,19.0,16.0,88,30.37,10.0,Calm,Calm,-,N/A,,Clear,0,2013-11-10 02:53:00
9:53 PM,19.0,17.1,92,30.39,10.0,West,4.6,-,N/A,,Clear,260,2013-11-10 03:53:00
10:53 PM,19.0,16.0,88,30.39,10.0,WSW,4.6,-,N/A,,Clear,250,2013-11-10 04:53:00
11:53 PM,19.0,16.0,88,30.39,10.0,WSW,3.5,-,N/A,,Clear,250,2013-11-10 05:53:00